K6OUA-11 Weather Reports


Display with metric or nautical units.
time (UTC)temp
F
wind
direction
speed
MPH
gust
MPH
rain 1hr
in
rain 24hr
in
rain mn
in
humidity
%
barometer
mb
20220517203953 79 262 9.0 14.0 0.00 0.00 0.00 39 1010.4
20220517203652 79 264 7.0 14.0 0.00 0.00 0.00 40 1010.5
20220517203350 78 278 8.0 14.0 0.00 0.00 0.00 39 1010.5
20220517203048 79 271 11.0 13.0 0.00 0.00 0.00 39 1010.6
20220517201839 79 263 9.0 11.0 0.00 0.00 0.00 39 1010.6
20220517201537 79 263 6.0 11.0 0.00 0.00 0.00 40 1010.5
20220517200012 77 274 6.0 20.0 0.00 0.00 0.00 41 1010.5
20220517195106 79 239 9.0 14.0 0.00 0.00 0.00 40 1010.7
20220517194803 79 264 10.0 14.0 0.00 0.00 0.00 40 1010.7
20220517194501 78 271 7.0 14.0 0.00 0.00 0.00 40 1010.7
20220517192951 78 260 4.0 12.0 0.00 0.00 0.00 41 1010.7
20220517191742 77 261 9.0 17.0 0.00 0.00 0.00 42 1010.9
20220517190754 77 279 8.0 16.0 0.00 0.00 0.00 42 1010.9
20220517190452 76 269 10.0 16.0 0.00 0.00 0.00 42 1010.8
20220517190150 76 263 5.0 16.0 0.00 0.00 0.00 42 1010.9
20220517185243 77 271 8.0 11.0 0.00 0.00 0.00 41 1010.8
20220517184337 76 265 6.0 10.0 0.00 0.00 0.00 41 1010.7
20220517184035 76 279 6.0 12.0 0.00 0.00 0.00 41 1010.8
20220517183733 76 278 9.0 12.0 0.00 0.00 0.00 40 1010.7
20220517182704 76 269 5.0 12.0 0.00 0.00 0.00 41 1010.8
20220517182401 76 262 4.0 14.0 0.00 0.00 0.00 41 1010.7
20220517182059 76 267 8.0 14.0 0.00 0.00 0.00 41 1010.7
20220517181757 76 269 5.0 14.0 0.00 0.00 0.00 42 1010.7
20220517181153 76 271 3.0 12.0 0.00 0.00 0.00 42 1010.8
20220517180851 75 276 5.0 12.0 0.00 0.00 0.00 42 1010.7
20220517180549 76 272 7.0 10.0 0.00 0.00 0.00 41 1010.6
20220517175643 75 280 5.0 12.0 0.00 0.00 0.00 42 1010.6
20220517175039 75 267 4.0 11.0 0.00 0.00 0.00 43 1010.6
20220517174738 75 274 5.0 11.0 0.00 0.00 0.00 43 1010.7
20220517173830 74 270 6.0 9.0 0.00 0.00 0.00 44 1010.7
20220517173528 74 277 5.0 9.0 0.00 0.00 0.00 44 1010.7
20220517172622 74 270 5.0 10.0 0.00 0.00 0.00 45 1010.7
20220517172017 73 263 8.0 10.0 0.00 0.00 0.00 45 1010.7
20220517170507 73 270 6.0 12.0 0.00 0.00 0.00 44 1010.6
20220517165601 73 277 4.0 10.0 0.00 0.00 0.00 44 1010.7
20220517165259 73 265 5.0 6.0 0.00 0.00 0.00 44 1010.7